Weather History for KHKY - December, 2013

Change the Weather History Date:

Sunday, December 29, 2013

  Actual Average Record
Temperature  
Mean Temperature 49 °F -  
Max Temperature 59 °F 49 °F 76 °F (1984)
Min Temperature 39 °F 28 °F 14 °F (1961)
Degree Days  
Heating Degree Days 16    
Moisture  
Dew Point 38 °F    
Average Humidity 85    
Maximum Humidity 96    
Minimum Humidity 53    
Precipitation  
Precipitation 0.63 in - - ()
Sea Level Pressure  
Sea Level Pressure 29.86 in    
Wind  
Wind Speed 5 mph (NW)    
Max Wind Speed 17 mph    
Max Gust Speed 31 mph    
Visibility 6 miles    
Events Rain    
Averages and records for this station are not official NWS values.
T = Trace of Precipitation, MM = Missing Value Source: NWS Daily Summary

Daily Weather History Graph

Daily Weather History Graph

Search for Another Location

Airport or City:

Trip Planner

Search our weather history database for the weather conditions in past years. The results will help you decide how hot, cold, wet, or windy it might be!

Date:

Astronomy

Dec. 29, 2013 Rise Set
Actual Time 7:34 AM EST 5:20 PM EST
Civil Twilight 7:06 AM EST 5:49 PM EST
Nautical Twilight 6:34 AM EST 6:21 PM EST
Astronomical Twilight 6:03 AM EST 6:52 PM EST
Moon 4:19 AM EST (12/29) 2:55 PM EST (12/29)
Length of Visible Light 10h 42m
Length of Day
9h 45m
Waning Crescent, 11% of the Moon is Illuminated
Dec 29
Waning Crescent
Jan 1
New
Jan 7
First Quarter
Jan 15
Full
Jan 24
Last Quarter

Hourly Weather History & Observations

Time (EST) Temp. Windchill Dew Point Humidity Pressure Visibility Wind Dir Wind Speed Gust Speed Precip Events Conditions
12:53 AM 39.9 °F 36.7 °F 37.9 °F 93% 30.06 in 4.0 mi North 4.6 mph - 0.05 in Rain Light Rain
1:53 AM 39.9 °F 36.7 °F 37.9 °F 93% 30.00 in 8.0 mi NNE 4.6 mph - 0.04 in Rain Light Rain
2:44 AM 39.2 °F 37.0 °F 37.4 °F 93% 30.02 in 4.0 mi NW 3.5 mph - 0.03 in Rain Light Rain
2:53 AM 39.9 °F 36.7 °F 37.9 °F 93% 29.99 in 6.0 mi North 4.6 mph - 0.03 in Rain Light Rain
3:23 AM 39.2 °F 35.9 °F 37.4 °F 93% 29.98 in 2.5 mi North 4.6 mph - 0.03 in Rain Rain
3:30 AM 39.2 °F 37.0 °F 37.4 °F 93% 29.98 in 4.0 mi NNW 3.5 mph - 0.04 in Rain Light Rain
3:53 AM 39.9 °F - 37.9 °F 93% 29.94 in 5.0 mi Calm Calm - 0.05 in Rain Light Rain
4:53 AM 39.9 °F 36.7 °F 37.9 °F 93% 29.90 in 6.0 mi North 4.6 mph - 0.01 in Rain Light Rain
5:33 AM 39.2 °F 35.9 °F 37.4 °F 93% 29.89 in 6.0 mi NW 4.6 mph - 0.04 in Rain Light Rain
5:53 AM 39.0 °F 35.7 °F 37.9 °F 96% 29.84 in 3.0 mi NNE 4.6 mph - 0.10 in Rain Rain
6:01 AM 39.2 °F 35.9 °F 37.4 °F 93% 29.86 in 2.5 mi North 4.6 mph - 0.03 in Rain Heavy Rain
6:09 AM 39.2 °F 34.2 °F 37.4 °F 93% 29.87 in 3.0 mi NW 6.9 mph - 0.06 in Rain Heavy Rain
6:17 AM 39.2 °F 35.0 °F 37.4 °F 93% 29.87 in 2.5 mi NW 5.8 mph - 0.09 in Rain Rain
6:24 AM 39.2 °F 35.9 °F 37.4 °F 93% 29.87 in 2.0 mi NW 4.6 mph - 0.12 in Rain Heavy Rain
6:39 AM 39.2 °F 35.0 °F 37.4 °F 93% 29.86 in 5.0 mi NW 5.8 mph - 0.14 in Rain Light Rain
6:44 AM 39.2 °F 35.9 °F 37.4 °F 93% 29.86 in 2.5 mi NW 4.6 mph - 0.17 in Rain Heavy Rain
6:49 AM 39.2 °F 35.0 °F 37.4 °F 93% 29.85 in 1.5 mi NW 5.8 mph - 0.20 in Rain Heavy Rain
6:53 AM 39.0 °F 35.7 °F 37.9 °F 96% 29.83 in 1.5 mi NNW 4.6 mph - 0.23 in Rain Heavy Rain
6:59 AM 39.2 °F 35.9 °F 37.4 °F 93% 29.85 in 2.0 mi NW 4.6 mph - 0.02 in Rain Rain
7:16 AM 39.2 °F 37.0 °F 37.4 °F 93% 29.85 in 5.0 mi NW 3.5 mph - 0.06 in Rain Light Rain
7:30 AM 39.2 °F - 37.4 °F 93% 29.83 in 4.0 mi Calm Calm - 0.07 in Rain Light Rain
7:53 AM 39.9 °F 35.8 °F 37.9 °F 93% 29.82 in 3.0 mi WNW 5.8 mph - 0.10 in Rain Rain
7:55 AM 39.2 °F 35.0 °F 37.4 °F 93% 29.84 in 2.5 mi WNW 5.8 mph - 0.00 in Rain Rain
8:01 AM 39.2 °F 35.0 °F 37.4 °F 93% 29.84 in 3.0 mi West 5.8 mph - 0.01 in Rain Light Rain
8:12 AM 39.2 °F 35.9 °F 37.4 °F 93% 29.83 in 2.5 mi WNW 4.6 mph - 0.01 in Rain Light Rain
8:25 AM 39.2 °F 35.0 °F 37.4 °F 93% 29.83 in 4.0 mi WNW 5.8 mph - 0.01 in Rain Light Rain
8:53 AM 41.0 °F 39.0 °F 39.0 °F 93% 29.80 in 3.0 mi NNW 3.5 mph - 0.02 in Rain Light Rain
9:01 AM 41.0 °F - 39.2 °F 93% 29.82 in 5.0 mi Calm Calm - N/A   Overcast
9:08 AM 41.0 °F 38.0 °F 39.2 °F 93% 29.81 in 9.0 mi NW 4.6 mph - N/A   Overcast
9:53 AM 42.1 °F 39.2 °F 39.9 °F 92% 29.79 in 10.0 mi West 4.6 mph - N/A   Overcast
10:53 AM 44.1 °F 39.5 °F 41.0 °F 89% 29.80 in 10.0 mi West 8.1 mph - N/A   Overcast
11:53 AM 45.0 °F 42.6 °F 43.0 °F 93% 29.77 in 10.0 mi West 4.6 mph - N/A   Overcast
12:39 PM 48.2 °F - 44.6 °F 87% 29.78 in 10.0 mi WSW 4.6 mph - N/A   Partly Cloudy
12:53 PM 51.1 °F - 45.0 °F 80% 29.75 in 10.0 mi Calm Calm - N/A   Clear
1:53 PM 57.9 °F - 45.0 °F 62% 29.73 in 10.0 mi West 11.5 mph 17.3 mph N/A   Clear
2:53 PM 59.0 °F - 42.1 °F 53% 29.75 in 10.0 mi West 17.3 mph 31.1 mph N/A   Clear
3:53 PM 57.0 °F - 41.0 °F 55% 29.77 in 10.0 mi NW 13.8 mph 19.6 mph N/A   Partly Cloudy
4:53 PM 53.1 °F - 37.9 °F 57% 29.80 in 10.0 mi NW 8.1 mph - N/A   Clear
5:53 PM 51.1 °F - 37.9 °F 61% 29.81 in 10.0 mi Calm Calm - N/A   Clear
6:53 PM 46.9 °F - 37.0 °F 68% 29.85 in 10.0 mi SW 4.6 mph - N/A   Clear
7:53 PM 46.0 °F 44.8 °F 37.0 °F 71% 29.87 in 10.0 mi SSW 3.5 mph - N/A   Clear
8:53 PM 46.9 °F - 37.0 °F 68% 29.88 in 10.0 mi NNW 3.5 mph - N/A   Clear
9:53 PM 45.0 °F 42.6 °F 35.1 °F 68% 29.89 in 10.0 mi WNW 4.6 mph - N/A   Clear
10:53 PM 46.9 °F - 32.0 °F 56% 29.91 in 10.0 mi West 3.5 mph - N/A   Clear
11:53 PM 44.1 °F 40.1 °F 32.0 °F 63% 29.92 in 10.0 mi WNW 6.9 mph - N/A   Clear